Vorticity
10 11 9 11 9 9 9 6 8 5 6 -1 1 2 -0 13 8 6 4 9 17 -5 -1 15 3 -1 5 1 -3 -7 -2 8 -1 -4 3 3 1 1 1 0 2 2 1 1 4 4 6 7 7 8 7 6 4 5 5 8 9 7 5 1 2 4 4 2 2 4 6 9 9 9 8 7 6 7 9 8 8 8 8 7 7 6 7 6 6 7 7 5 4 5 6 8 9 8 7 7 7
11 11 11 11 10 10 10 9 8 6 7 -0 -1 1 6 13 2 9 4 -7 9 7 -0 4 -8 -12 8 10 4 1 -5 0 4 3 5 4 -1 0 -0 -2 1 1 1 3 5 5 6 8 8 8 6 5 5 5 6 7 9 7 4 2 3 4 3 2 2 5 7 8 9 9 7 7 7 9 9 8 8 8 7 7 6 6 7 5 6 7 6 4 4 6 7 9 9 9 9 7 6
9 10 12 10 11 12 11 10 6 7 7 -1 0 5 10 8 2 8 8 3 -1 3 6 10 14 0 -1 -1 -3 -0 -4 1 5 3 3 4 4 4 4 3 4 4 6 6 5 7 6 7 7 6 5 5 5 5 6 8 9 6 3 2 3 4 2 2 3 6 8 9 9 9 7 7 8 9 9 9 8 7 6 6 6 7 6 5 7 6 5 4 5 7 9 11 11 11 11 9 8
9 8 10 9 10 10 10 9 7 9 5 -1 2 9 9 4 8 4 7 20 1 -5 -0 -8 8 14 8 4 1 3 3 5 3 2 4 5 4 3 4 4 6 7 6 6 6 7 6 6 5 5 5 4 5 6 7 9 8 5 3 3 4 4 2 2 4 6 8 10 10 8 8 8 9 10 8 9 7 6 5 5 7 6 6 7 7 6 5 5 6 8 11 11 11 13 12 11 11
8 8 8 9 9 7 10 10 10 7 1 2 5 10 10 4 7 7 13 15 -3 -1 6 -12 -11 2 5 7 10 9 6 7 8 6 3 4 6 4 5 4 4 6 5 7 6 6 6 5 6 6 7 6 6 7 9 10 7 4 3 4 4 3 2 3 5 7 10 10 9 8 8 9 9 9 8 8 6 5 5 5 7 7 7 7 6 6 6 5 7 10 12 11 11 13 12 12 13
7 9 9 9 9 7 8 5 8 4 4 9 9 9 8 12 8 2 10 10 6 2 11 9 -4 0 -0 1 6 5 3 3 6 8 6 4 6 5 4 5 4 5 7 7 5 6 6 5 7 7 7 7 7 9 9 9 6 4 4 4 3 2 2 3 6 9 10 10 8 8 9 10 9 9 8 6 5 5 5 6 7 7 8 7 7 6 6 6 8 12 11 10 12 13 13 13 13
8 9 9 9 9 9 7 4 6 4 8 9 7 11 5 19 26 18 9 -0 10 1 6 15 3 8 -2 -2 9 6 5 0 2 4 6 4 4 6 3 5 5 6 8 6 6 5 5 4 5 4 5 6 7 9 8 7 5 4 4 4 3 2 2 4 8 10 10 9 8 8 10 10 9 8 7 5 5 5 6 7 7 7 8 7 7 7 6 7 9 11 10 11 14 13 13 13 13
10 9 10 12 10 8 9 6 8 6 9 10 8 13 -1 -2 17 36 24 -5 8 0 -10 -1 3 16 2 -3 7 9 9 2 2 1 1 4 3 4 2 4 5 6 7 6 6 4 3 1 1 2 4 7 8 9 8 7 5 4 4 3 3 2 3 6 9 10 9 8 8 9 10 9 8 7 6 5 5 5 6 7 7 7 7 8 7 8 7 8 10 9 10 13 14 13 13 12 12
14 10 10 11 10 9 8 6 9 8 9 12 9 15 5 -10 -4 18 22 -0 6 5 -12 -11 -3 10 12 13 10 7 10 4 5 4 2 4 2 3 3 5 5 7 8 6 5 3 2 -0 -0 2 5 8 8 8 8 7 5 5 4 3 3 2 4 7 10 10 8 8 8 9 10 8 8 7 5 5 5 5 7 7 7 7 7 8 8 8 8 9 10 8 11 14 14 13 12 10 11
17 11 12 12 15 13 7 4 6 7 8 11 8 16 14 3 1 0 13 12 2 6 -0 -4 0 6 10 12 9 6 7 6 6 5 5 3 3 4 4 5 6 8 8 5 4 2 1 1 1 3 7 7 6 7 7 7 5 4 4 3 2 3 6 8 10 9 8 8 9 9 9 8 8 6 5 5 6 6 7 7 8 8 8 8 8 7 8 9 9 9 12 15 13 12 11 9 10
19 15 13 8 12 14 12 11 8 9 6 9 9 14 15 6 6 -11 2 28 12 8 5 -1 1 -0 1 1 3 5 4 4 2 4 5 3 3 3 5 6 7 8 7 5 4 3 3 2 3 6 7 5 5 7 8 7 5 4 4 3 2 4 7 8 9 9 8 9 9 9 8 8 7 5 5 5 6 6 7 8 8 8 8 8 8 8 8 9 8 10 13 15 12 10 11 9 10
17 15 16 7 6 10 17 19 13 14 7 10 8 11 17 0 0 -9 -8 13 9 12 16 13 5 -3 8 13 6 3 6 5 2 5 3 4 4 2 4 5 7 7 7 6 5 6 4 3 5 8 6 5 7 8 8 6 5 5 3 2 3 6 7 8 10 9 8 9 9 9 8 8 6 5 5 5 6 6 7 8 9 8 9 8 8 8 8 9 8 11 14 13 11 10 10 9 10
16 16 17 15 13 8 12 18 17 15 9 12 6 12 20 -2 -2 0 -11 -6 0 7 10 13 10 9 17 19 10 3 8 7 1 4 3 3 2 2 4 4 7 7 6 6 7 6 4 6 7 7 5 5 8 8 7 6 5 5 3 3 5 6 7 9 10 9 9 9 9 8 8 7 5 5 5 6 5 6 8 8 9 8 8 8 8 8 8 9 9 12 14 12 10 10 9 10 11
17 17 14 18 20 14 8 10 18 15 12 12 7 13 7 -0 13 12 -2 -7 -3 -6 -10 0 8 16 14 8 10 7 7 7 2 4 4 3 2 3 4 5 7 7 8 7 6 6 5 7 6 5 5 6 8 8 7 6 6 4 3 3 5 7 8 10 10 9 9 9 9 8 7 6 5 5 5 5 6 6 8 8 9 8 8 8 7 8 8 9 10 12 13 11 10 9 8 10 11
18 18 15 16 15 19 12 4 14 14 15 12 12 12 -12 -3 16 19 26 8 -3 -4 -12 -6 -3 6 10 6 11 11 7 6 4 3 3 4 3 3 3 6 9 7 8 6 5 6 6 5 5 5 5 7 8 7 7 6 5 4 3 4 6 7 9 10 9 9 10 9 9 8 6 6 5 5 5 5 6 7 8 8 8 8 8 8 8 8 8 9 10 12 12 10 9 8 8 8 11
18 17 12 13 8 15 16 9 12 12 16 13 26 20 -14 4 8 7 34 13 -1 5 -2 0 -9 -6 13 15 7 4 5 6 7 3 3 4 3 3 4 7 9 9 7 5 5 5 5 4 5 7 6 8 8 7 7 6 5 3 2 5 7 8 9 9 8 9 10 9 8 8 5 6 6 5 5 5 6 7 7 9 8 8 8 8 8 8 8 9 10 12 13 10 8 8 8 8 10
15 15 10 13 13 11 15 13 10 15 11 3 34 31 -13 1 8 6 27 18 11 6 -5 0 -3 -3 13 16 2 -0 5 5 7 4 2 2 2 3 5 9 9 9 7 4 5 5 5 6 7 7 8 8 7 7 6 6 4 3 3 6 7 7 9 9 9 10 9 9 7 6 5 6 7 5 5 5 6 7 8 8 7 8 8 8 8 8 9 9 10 13 12 10 9 9 8 8 10
10 14 10 10 16 16 18 15 11 17 4 -9 20 23 -6 1 3 0 9 12 18 17 9 7 18 23 11 6 1 3 5 1 5 6 3 1 2 4 6 10 9 8 7 6 6 6 6 6 7 7 7 7 6 7 6 6 3 2 5 6 7 7 10 10 9 9 9 9 7 6 5 6 6 5 5 5 6 8 8 8 7 8 8 8 8 9 9 9 11 12 11 9 10 9 8 9 9
10 15 13 11 16 16 18 19 18 9 -4 1 12 6 3 11 7 -1 -1 -0 2 16 24 10 14 20 5 3 3 6 9 7 10 7 3 2 3 6 8 8 8 9 7 7 7 6 6 5 6 6 6 6 6 7 5 5 3 3 6 6 8 9 10 10 8 9 9 8 6 6 6 6 6 6 5 5 7 8 8 8 8 8 8 8 8 9 9 9 12 12 10 10 10 9 8 9 9
15 15 14 18 16 12 16 24 23 -11 -20 12 17 4 3 10 13 7 0 -1 -5 2 11 -2 -2 5 -3 -1 8 18 21 11 5 3 4 4 4 4 6 7 7 9 7 6 5 4 5 4 5 5 5 7 6 7 6 4 3 3 6 8 9 9 9 9 9 9 9 7 6 7 6 7 6 5 4 4 6 7 8 8 8 8 8 9 9 11 8 10 13 11 11 10 9 8 8 9 10
15 16 14 19 12 12 13 22 25 -21 -24 21 20 6 6 9 12 6 2 1 3 6 -2 -9 3 15 11 13 18 11 1 1 3 4 6 5 6 5 6 9 8 9 8 4 3 3 5 4 5 6 5 7 6 6 5 3 3 4 7 9 8 9 10 10 11 9 8 7 6 7 7 6 5 5 4 4 6 7 8 7 8 8 9 10 10 12 8 8 13 10 10 10 8 7 7 8 9
12 17 20 17 10 16 12 19 25 -24 -23 25 20 9 9 9 12 7 11 6 4 12 7 6 14 17 16 18 14 -6 -13 3 7 1 4 6 7 8 9 11 10 9 7 4 4 4 4 5 6 6 6 6 6 6 5 3 3 5 8 10 8 9 10 11 11 7 7 7 6 7 7 6 5 5 4 4 6 7 8 7 8 8 9 11 10 12 9 7 11 9 8 9 8 7 7 8 9
14 21 20 11 8 13 12 23 17 -27 -14 22 16 21 15 3 10 7 9 7 2 11 14 14 21 22 14 1 -6 1 8 8 4 0 3 6 6 8 9 10 10 8 7 5 4 5 4 7 6 6 7 5 6 5 4 4 3 6 9 8 9 9 10 11 9 6 7 7 7 7 6 7 6 5 3 4 6 7 8 7 8 8 9 10 9 11 9 9 11 8 8 9 8 8 7 8 10
20 24 16 8 12 8 7 22 10 -17 6 29 13 20 24 6 3 2 3 5 1 12 14 12 26 30 15 2 -0 7 11 4 2 5 5 8 9 10 11 10 9 7 7 6 4 6 6 7 6 5 6 5 6 5 3 4 3 7 9 7 9 11 10 11 9 6 7 6 8 7 6 7 6 5 3 4 7 7 7 8 8 8 9 10 9 10 9 12 12 6 8 10 8 8 7 9 10
19 12 14 9 11 12 5 11 11 -1 1 20 15 3 12 15 11 5 4 8 7 13 11 5 17 20 8 6 9 4 1 4 3 4 6 7 8 11 14 10 7 6 6 6 5 6 7 7 7 6 6 6 5 4 3 4 5 8 9 8 11 11 11 11 8 6 6 7 8 7 6 7 6 5 4 5 6 7 7 8 8 8 10 10 9 10 9 13 12 5 8 10 8 8 8 8 9
20 4 17 5 3 16 4 -2 14 17 -5 0 19 4 -4 8 16 6 3 17 17 13 12 4 -1 8 22 14 4 5 2 2 2 4 5 2 8 12 12 9 5 6 5 6 6 6 7 6 6 6 6 6 5 4 5 5 7 9 9 9 11 11 12 10 6 5 6 9 9 7 7 7 6 5 4 5 6 6 7 8 8 8 10 10 10 9 9 13 11 6 8 9 8 8 8 9 9
10 7 21 1 3 15 0 -1 10 20 7 -5 8 6 -1 7 12 -0 5 24 14 12 17 11 4 3 17 9 -5 3 2 1 2 2 1 0 9 11 8 8 5 5 5 5 6 7 7 6 6 7 5 5 4 5 6 6 7 9 10 10 11 11 11 8 5 5 6 10 9 7 7 6 6 5 4 6 6 6 7 8 8 9 11 11 10 10 9 12 12 8 5 7 9 8 8 9 8
-1 14 24 1 3 8 1 7 5 12 17 10 0 -7 9 18 6 -3 10 23 14 32 37 11 10 10 7 7 1 5 7 10 7 1 3 2 6 9 7 7 5 5 5 6 6 7 7 6 6 5 5 4 4 6 6 7 7 10 13 10 10 11 9 6 4 5 7 10 9 8 7 6 6 5 5 6 5 6 7 8 9 10 11 11 10 11 9 10 14 10 4 7 9 8 9 9 8
8 15 17 4 2 4 3 6 6 7 10 20 10 -10 11 18 4 9 17 13 -10 10 44 20 4 13 20 21 9 4 6 9 9 6 9 9 8 9 9 7 6 4 5 6 5 5 5 5 5 4 5 4 5 7 6 7 8 11 12 8 10 11 7 5 4 5 8 11 10 8 8 6 6 5 5 6 5 6 6 7 10 11 11 11 11 10 10 10 12 10 6 9 8 8 10 9 9
16 13 11 6 4 7 4 6 8 5 7 22 16 -2 10 5 5 19 14 12 -19 -34 16 29 6 -4 -2 6 6 2 -1 -0 7 10 10 10 9 9 9 8 6 5 4 5 3 4 4 3 5 4 4 5 7 8 6 8 9 10 11 9 12 10 5 4 4 5 8 10 10 8 8 7 6 5 5 6 5 6 7 8 11 12 11 11 11 10 11 10 11 10 7 9 8 8 10 9 10
18 17 11 3 6 7 4 14 7 3 14 7 4 18 22 2 3 11 7 14 -2 -12 13 17 12 -3 -26 -16 3 4 1 0 1 3 7 9 8 8 10 8 6 6 4 3 3 3 4 3 5 5 4 6 7 7 7 8 10 10 11 12 11 8 5 4 4 6 9 11 10 8 8 7 5 5 5 5 5 6 7 9 11 13 11 11 11 10 11 10 10 12 9 9 9 8 10 10 10
16 16 11 8 7 3 7 16 7 12 19 -6 2 33 27 13 11 2 10 11 -1 30 38 2 3 4 -7 5 11 6 6 4 -3 -4 5 8 6 6 8 8 6 6 3 3 4 4 4 4 5 6 6 7 6 6 9 9 10 11 11 12 10 6 4 4 4 7 9 11 10 8 8 7 5 5 5 5 5 6 7 10 12 12 11 11 10 9 11 10 10 12 10 9 9 9 11 9 8
16 12 16 16 0 6 19 5 3 17 9 -2 17 29 13 16 20 0 12 11 1 49 49 6 4 -8 -3 25 22 15 9 4 5 1 0 2 4 5 6 7 5 5 5 4 5 4 5 5 6 6 6 7 6 8 9 9 10 11 11 12 9 6 4 4 5 7 10 10 10 8 7 6 6 5 5 5 5 7 9 11 11 11 12 11 10 10 11 11 10 10 10 10 9 9 10 9 7
13 12 17 16 0 13 19 -4 13 20 -1 11 24 23 14 10 14 6 18 5 -19 26 34 7 14 -7 -15 6 11 19 15 8 11 2 -3 -0 3 4 3 4 4 6 6 5 5 5 6 6 6 5 6 7 7 9 9 9 11 10 11 11 8 5 4 4 5 8 10 10 10 9 7 5 6 5 5 5 5 7 10 11 10 11 11 10 10 11 11 11 10 10 10 11 10 9 9 8 6
11 10 6 12 16 16 10 6 25 17 6 25 17 16 23 10 8 4 21 12 -33 -5 24 6 9 4 -9 -9 -3 12 13 11 11 6 7 10 8 4 0 3 6 8 7 6 6 5 5 5 5 5 7 8 8 9 10 11 11 11 11 10 7 5 4 4 6 9 10 10 10 9 7 6 5 5 5 5 6 8 11 11 10 10 11 11 11 11 11 11 10 10 10 11 10 9 8 6 5
11 9 7 16 21 11 12 19 20 12 17 24 10 19 25 9 10 3 10 28 8 6 21 11 5 4 -0 -4 -4 1 5 12 17 21 22 18 17 8 -0 2 8 9 6 6 6 5 4 3 6 7 7 8 8 9 11 11 11 11 11 8 6 4 4 5 6 9 10 10 11 8 7 6 5 5 5 5 6 9 11 11 10 10 11 12 12 11 11 11 10 11 11 10 10 8 6 5 5
15 15 18 16 9 9 14 17 19 16 14 13 10 22 20 2 9 17 8 17 32 21 8 12 9 5 6 2 1 2 7 13 14 22 18 11 16 9 1 4 9 9 6 6 6 5 6 5 7 7 7 8 8 10 11 12 11 11 10 7 5 4 4 6 7 10 11 10 10 8 6 6 5 5 5 5 6 9 11 11 11 11 12 13 12 12 11 11 10 11 10 9 9 7 6 4 3
21 18 20 10 10 22 12 12 26 16 6 17 19 10 7 5 10 23 17 7 17 11 2 14 11 7 9 4 7 10 11 12 10 13 9 6 11 6 4 8 8 7 5 5 5 6 7 6 7 7 8 8 7 11 12 12 11 10 9 6 4 4 4 6 8 10 10 10 10 8 7 6 5 5 5 5 7 10 11 12 12 11 13 14 13 12 12 12 10 10 9 8 7 6 5 3 2
15 16 27 19 18 27 16 14 18 8 10 12 7 1 -3 12 21 14 13 9 7 5 4 8 6 11 16 12 13 10 9 12 9 7 5 6 8 4 6 9 6 4 4 4 4 6 6 6 8 8 8 9 10 12 12 11 11 10 8 5 4 4 5 6 8 9 9 10 10 8 8 6 5 6 5 5 7 10 11 11 13 12 12 14 13 12 11 12 10 9 8 7 6 4 3 4 5
15 14 18 12 10 19 14 10 4 8 23 6 -2 7 -4 6 24 13 7 6 4 11 8 -1 3 16 22 20 14 7 8 8 4 2 4 7 6 3 6 7 6 4 3 5 3 5 7 8 9 10 11 11 12 12 10 11 11 9 7 4 5 5 5 7 8 10 10 10 10 9 8 7 6 6 5 5 7 10 11 11 12 12 11 12 12 11 10 11 10 8 7 6 5 4 4 4 5
20 23 19 11 9 15 11 9 10 12 20 9 3 10 3 9 17 9 7 4 4 11 7 -3 -1 10 16 13 8 6 5 7 7 4 5 7 5 5 6 5 6 5 5 6 5 6 8 9 10 11 12 11 11 10 9 11 11 9 6 5 6 5 6 7 8 10 10 10 10 8 8 7 6 7 5 5 6 9 10 10 11 11 11 11 11 10 9 10 9 8 7 6 5 4 5 6 6
10 18 21 13 5 10 9 9 12 8 9 10 1 -5 4 13 13 10 4 1 9 11 7 -0 -8 -1 8 5 7 8 3 8 12 7 7 8 6 7 7 7 7 6 7 7 7 9 10 12 12 11 11 10 10 9 8 11 10 8 6 5 6 5 6 7 8 9 9 10 9 8 8 7 7 7 6 5 6 10 10 10 10 10 10 10 10 10 8 8 8 7 6 6 6 6 7 7 6
2 8 14 11 10 12 7 6 10 10 11 9 -3 -4 11 12 8 14 3 -6 9 12 9 7 -2 -0 4 5 12 12 6 9 10 7 8 8 6 5 6 9 8 6 7 8 10 9 10 12 11 10 10 9 8 8 9 11 9 7 5 6 6 6 6 7 8 9 9 10 9 8 8 7 8 7 6 6 6 9 10 10 9 8 9 9 9 9 8 7 7 7 6 6 7 7 7 6 5
9 12 12 11 13 9 8 11 7 8 13 13 9 7 14 19 16 15 6 2 13 17 9 5 2 1 2 7 12 9 6 8 9 8 4 5 6 5 8 9 7 8 9 11 12 10 10 11 11 10 8 9 9 8 10 10 8 7 5 6 6 5 7 7 8 8 8 9 8 8 7 6 8 8 7 6 5 8 10 10 9 7 8 7 8 8 7 7 6 6 6 6 7 7 6 6 5
18 15 12 12 8 7 14 10 1 7 10 8 11 7 5 21 27 13 1 3 13 16 10 4 5 5 6 7 5 7 7 3 9 10 4 9 10 7 10 8 7 10 8 10 13 10 11 12 10 10 8 9 10 8 11 10 7 7 6 6 6 5 6 7 8 8 8 9 8 8 8 7 8 8 8 6 5 7 9 10 9 7 7 6 7 8 7 7 6 6 6 6 7 6 5 5 4
13 11 11 7 3 12 16 7 8 13 4 -7 -2 6 5 12 28 24 9 9 13 11 6 5 8 6 5 3 -3 3 6 2 11 15 6 9 12 10 11 9 9 10 9 16 16 5 9 12 7 8 9 9 8 8 10 9 6 7 6 6 5 4 6 6 7 8 7 8 8 8 8 8 8 8 8 7 6 6 7 10 9 7 7 6 7 7 7 7 6 6 6 6 6 5 5 4 3
7 4 3 -5 -1 16 16 11 17 10 7 13 9 12 11 5 22 32 18 11 9 5 6 8 7 3 -0 0 -2 2 7 7 15 19 8 5 8 10 10 9 10 7 10 23 17 2 6 10 7 8 9 7 8 9 9 8 7 7 6 6 4 3 5 6 7 7 7 7 7 7 7 7 8 9 9 8 7 6 6 8 9 9 7 6 6 7 7 7 6 6 6 6 6 5 5 4 4
6 3 5 5 11 21 17 13 12 5 13 19 5 8 16 7 20 33 24 17 11 9 13 10 6 2 1 5 5 6 10 12 14 13 8 8 8 9 9 9 10 7 10 18 13 5 7 9 8 9 8 6 8 9 9 8 7 7 6 5 3 3 5 6 7 7 7 7 6 7 7 7 8 8 9 9 9 7 7 7 8 10 9 7 7 7 7 7 6 7 6 6 6 5 5 4 5
5 7 10 14 15 13 13 12 5 5 14 12 3 10 10 5 21 25 15 15 17 17 20 17 12 7 7 11 9 8 8 10 11 6 4 9 10 11 11 9 12 13 12 15 12 6 6 10 10 7 6 8 8 9 10 9 7 7 6 4 3 5 6 7 7 8 8 7 6 6 7 8 8 8 8 10 10 9 8 7 7 8 9 10 9 7 7 7 7 7 7 7 6 6 5 4 5
6 13 13 10 8 3 7 13 5 2 10 9 6 7 3 10 23 17 11 15 9 6 15 25 25 14 8 10 8 10 10 7 8 7 6 10 10 12 12 10 15 16 11 13 12 6 5 10 10 6 6 8 8 9 10 9 8 6 5 4 4 5 6 8 8 8 8 7 7 6 6 7 8 9 9 10 11 10 9 8 7 7 8 9 10 9 7 7 7 7 7 7 7 6 5 4 5
12 18 14 6 6 3 4 12 9 8 13 7 0 4 10 15 14 11 23 30 11 -2 6 18 24 15 8 11 9 11 17 12 7 7 7 9 11 11 11 11 12 12 8 10 12 9 9 11 9 7 9 9 9 10 10 9 8 7 5 5 5 7 8 8 8 9 8 7 7 6 6 7 7 8 9 10 10 11 11 10 8 7 7 7 9 10 10 8 8 7 8 8 8 7 6 4 4
13 14 9 4 7 4 4 11 9 12 17 9 2 9 13 13 16 17 19 22 17 10 9 13 18 13 9 14 9 11 24 19 10 14 12 10 12 9 9 10 9 9 9 12 14 11 12 13 10 8 11 9 9 10 10 9 8 7 7 7 8 9 9 8 9 8 8 7 7 6 7 7 7 8 8 9 10 11 13 13 11 9 7 7 7 8 9 10 9 8 8 8 8 7 7 5 4
9 11 7 5 8 4 7 15 12 11 13 11 11 10 5 4 16 24 13 10 17 16 9 12 18 15 14 19 12 13 25 14 6 16 11 5 10 10 9 9 9 12 11 12 15 12 9 11 10 10 12 10 9 11 10 10 9 8 9 10 10 10 9 9 8 6 6 7 7 7 8 8 8 8 7 7 8 9 11 13 14 13 10 7 7 7 7 9 10 10 9 9 8 8 7 6 5
8 9 6 4 9 14 20 21 16 13 8 10 13 7 3 -2 -3 9 12 7 10 13 11 12 13 10 12 15 10 11 15 5 4 11 6 6 13 10 9 9 8 10 9 10 15 12 8 8 10 12 13 11 10 9 8 10 11 11 10 10 9 9 8 7 5 6 7 8 8 9 8 8 8 7 8 8 8 9 8 9 12 14 14 11 8 7 6 6 8 8 9 10 9 9 8 7 6
14 7 7 10 16 23 19 5 6 15 9 7 11 8 10 7 -4 1 10 8 4 6 11 13 11 9 8 8 8 10 7 2 8 9 8 17 14 4 9 12 9 9 11 12 9 7 8 9 7 9 11 13 11 9 9 9 9 8 7 8 7 6 7 7 8 8 9 10 10 10 9 9 9 7 7 6 7 8 8 7 8 9 12 13 11 9 7 7 7 7 7 8 9 9 9 8 8
25 16 11 11 13 16 12 2 5 14 10 8 8 7 9 10 7 7 8 8 5 1 5 8 7 7 9 9 7 7 4 4 11 9 10 16 8 2 11 11 7 9 9 9 8 7 11 10 6 7 9 10 10 10 10 10 13 12 9 8 9 8 9 9 10 10 9 10 10 9 9 8 8 8 8 7 6 7 7 7 7 7 9 11 11 11 9 8 7 7 6 6 6 8 8 9 9
18 12 6 9 8 1 2 12 15 9 8 12 11 9 8 6 9 11 10 12 10 7 7 8 8 8 9 7 3 7 9 7 10 10 9 12 10 10 12 8 11 14 7 8 13 13 11 11 14 14 11 8 9 15 15 13 14 12 8 9 8 8 10 8 7 7 6 8 9 9 10 10 11 8 6 6 7 7 8 8 7 7 7 8 10 11 11 10 9 8 8 7 7 6 6 7 8
12 -0 -2 14 11 -7 -4 15 19 9 4 10 13 11 10 11 9 7 9 10 7 9 9 7 12 13 10 7 4 6 9 8 11 11 7 8 11 10 7 7 13 13 8 10 15 14 10 10 13 11 8 8 8 12 13 9 5 2 7 12 7 7 11 10 8 7 6 7 7 8 10 13 17 17 13 11 8 7 7 7 7 8 7 8 9 9 11 12 11 10 9 8 7 7 7 6 6
Height
5794 5795 5796 5797 5798 5800 5801 5803 5803 5806 5808 5810 5817 5821 5825 5830 5831 5834 5838 5840 5845 5848 5848 5843 5840 5837 5837 5839 5841 5841 5842 5843 5843 5844 5845 5846 5847 5848 5848 5848 5848 5847 5848 5848 5849 5849 5849 5849 5849 5848 5848 5847 5847 5846 5846 5845 5845 5844 5843 5842 5841 5840 5839 5838 5837 5835 5834 5832 5831 5829 5828 5827 5826 5825 5824 5823 5822 5821 5820 5819 5818 5817 5816 5815 5814 5813 5812 5811 5811 5810 5809 5808 5807 5806 5805 5804 5802
5788 5789 5791 5791 5793 5795 5795 5797 5799 5801 5803 5806 5813 5818 5823 5827 5827 5832 5835 5838 5844 5847 5843 5836 5834 5833 5835 5839 5839 5840 5840 5841 5841 5842 5843 5844 5845 5846 5846 5846 5846 5846 5847 5847 5848 5848 5848 5848 5847 5847 5846 5846 5845 5845 5844 5844 5843 5843 5842 5841 5840 5839 5838 5837 5835 5834 5832 5831 5830 5828 5827 5827 5826 5825 5824 5822 5821 5820 5819 5818 5817 5816 5816 5815 5814 5812 5811 5811 5810 5809 5808 5807 5806 5805 5804 5802 5801
5782 5783 5784 5785 5787 5789 5790 5791 5793 5796 5798 5802 5811 5817 5820 5822 5824 5829 5833 5837 5843 5845 5839 5831 5831 5831 5833 5836 5836 5838 5839 5840 5841 5841 5841 5842 5843 5843 5844 5844 5844 5845 5845 5846 5846 5846 5846 5846 5846 5846 5845 5845 5844 5844 5843 5843 5842 5842 5841 5840 5839 5838 5837 5835 5834 5833 5831 5830 5829 5828 5827 5826 5825 5824 5823 5822 5820 5819 5818 5817 5816 5815 5815 5814 5813 5812 5811 5810 5809 5808 5807 5806 5805 5804 5802 5801 5800
5776 5777 5778 5780 5781 5782 5784 5785 5789 5792 5793 5799 5809 5814 5816 5819 5823 5827 5831 5836 5840 5839 5833 5828 5828 5828 5829 5831 5834 5837 5839 5839 5840 5840 5840 5840 5841 5842 5842 5842 5843 5844 5844 5845 5845 5845 5845 5845 5845 5844 5844 5843 5843 5843 5842 5842 5841 5841 5840 5839 5838 5837 5835 5834 5833 5832 5830 5829 5828 5827 5826 5825 5824 5823 5822 5821 5820 5819 5817 5817 5816 5815 5814 5813 5812 5811 5810 5809 5808 5807 5805 5805 5804 5802 5801 5800 5799
5770 5771 5772 5774 5774 5776 5778 5779 5784 5786 5790 5799 5806 5810 5813 5816 5821 5825 5828 5835 5838 5832 5828 5825 5823 5825 5827 5828 5831 5836 5837 5838 5839 5839 5839 5839 5840 5840 5840 5841 5842 5842 5843 5844 5844 5844 5844 5844 5843 5843 5843 5842 5842 5841 5841 5841 5840 5840 5839 5838 5836 5835 5834 5833 5832 5830 5829 5828 5827 5826 5825 5825 5824 5822 5821 5820 5819 5818 5817 5816 5815 5814 5813 5812 5811 5810 5809 5808 5807 5806 5805 5804 5802 5801 5800 5799 5798
5764 5765 5766 5768 5769 5771 5772 5773 5778 5782 5790 5799 5802 5808 5811 5814 5819 5823 5827 5834 5835 5827 5824 5821 5819 5823 5825 5826 5829 5833 5834 5835 5836 5837 5837 5838 5838 5838 5839 5839 5840 5841 5843 5843 5843 5842 5842 5842 5842 5842 5842 5841 5841 5840 5840 5840 5839 5838 5837 5836 5835 5834 5833 5832 5831 5829 5828 5827 5826 5825 5825 5824 5823 5822 5820 5819 5818 5817 5816 5815 5814 5813 5812 5812 5811 5810 5808 5807 5806 5805 5804 5803 5801 5800 5799 5798 5798
5757 5759 5760 5762 5763 5765 5766 5768 5775 5780 5788 5795 5798 5805 5809 5813 5818 5820 5827 5832 5827 5821 5819 5815 5816 5821 5823 5824 5827 5830 5831 5833 5834 5834 5835 5836 5836 5837 5837 5838 5839 5840 5841 5842 5841 5841 5841 5841 5841 5841 5841 5840 5840 5839 5839 5838 5838 5837 5836 5835 5834 5833 5832 5831 5829 5828 5827 5826 5825 5825 5824 5823 5822 5821 5820 5818 5817 5816 5815 5814 5814 5813 5812 5811 5810 5809 5807 5806 5805 5804 5803 5802 5800 5799 5798 5798 5797
5751 5753 5755 5757 5758 5760 5761 5765 5773 5778 5786 5792 5795 5802 5806 5813 5819 5819 5825 5825 5818 5816 5815 5812 5815 5819 5820 5822 5825 5828 5830 5831 5832 5832 5833 5833 5834 5835 5835 5836 5838 5839 5840 5840 5840 5840 5840 5840 5840 5840 5840 5839 5839 5838 5838 5837 5837 5836 5835 5834 5833 5832 5831 5830 5828 5827 5826 5825 5824 5824 5823 5822 5821 5820 5819 5818 5817 5816 5815 5814 5813 5812 5811 5810 5809 5808 5806 5805 5804 5803 5802 5801 5800 5798 5797 5797 5796
5745 5747 5749 5751 5752 5755 5757 5762 5770 5775 5783 5788 5792 5799 5803 5809 5814 5818 5822 5819 5814 5815 5811 5809 5811 5816 5820 5821 5823 5826 5827 5829 5830 5831 5831 5832 5832 5833 5834 5835 5836 5837 5838 5838 5838 5838 5839 5839 5839 5839 5838 5838 5837 5837 5836 5836 5835 5834 5834 5833 5832 5831 5830 5828 5827 5826 5825 5824 5824 5823 5822 5821 5820 5819 5818 5817 5816 5815 5814 5813 5812 5811 5810 5809 5808 5807 5806 5805 5804 5803 5802 5800 5799 5798 5797 5796 5796
5739 5741 5743 5746 5747 5749 5753 5758 5766 5772 5778 5784 5789 5796 5802 5805 5807 5813 5817 5814 5811 5811 5806 5804 5806 5813 5818 5818 5821 5824 5825 5827 5827 5828 5829 5830 5831 5831 5833 5834 5835 5836 5836 5837 5836 5837 5837 5837 5837 5837 5837 5837 5836 5836 5835 5834 5834 5833 5832 5831 5831 5830 5829 5827 5826 5825 5824 5824 5823 5822 5821 5820 5819 5818 5817 5816 5815 5814 5813 5812 5811 5810 5809 5808 5807 5806 5805 5804 5803 5802 5801 5800 5799 5797 5796 5796 5795
5733 5736 5738 5740 5742 5745 5750 5756 5763 5769 5775 5781 5785 5791 5798 5802 5804 5806 5808 5804 5803 5804 5802 5801 5802 5809 5814 5816 5819 5821 5822 5824 5825 5826 5826 5828 5829 5830 5832 5832 5834 5834 5835 5835 5835 5835 5835 5836 5836 5836 5836 5835 5835 5834 5834 5833 5833 5832 5831 5830 5829 5829 5827 5826 5825 5824 5823 5823 5822 5821 5821 5820 5819 5818 5816 5815 5814 5813 5813 5812 5811 5809 5808 5808 5806 5805 5804 5803 5802 5801 5800 5799 5798 5797 5796 5795 5795
5728 5731 5733 5735 5738 5743 5749 5755 5760 5767 5772 5776 5781 5786 5793 5798 5801 5800 5798 5796 5798 5800 5799 5798 5800 5806 5812 5815 5818 5819 5821 5822 5824 5824 5824 5826 5827 5829 5830 5831 5832 5832 5833 5833 5833 5834 5834 5834 5834 5834 5834 5834 5833 5833 5832 5832 5831 5831 5830 5829 5828 5827 5826 5825 5824 5823 5823 5822 5821 5821 5820 5819 5818 5817 5816 5815 5814 5813 5812 5811 5810 5809 5808 5807 5806 5805 5804 5803 5802 5801 5799 5798 5798 5797 5796 5795 5794
5724 5727 5729 5732 5736 5741 5746 5751 5757 5763 5767 5772 5778 5783 5790 5796 5798 5795 5792 5793 5795 5796 5794 5795 5799 5804 5809 5813 5816 5818 5819 5821 5822 5822 5823 5824 5826 5827 5828 5829 5830 5831 5831 5831 5832 5832 5832 5833 5833 5833 5833 5832 5832 5831 5831 5830 5830 5829 5829 5828 5827 5826 5825 5824 5823 5822 5822 5821 5820 5820 5819 5818 5818 5816 5815 5814 5813 5812 5811 5810 5809 5808 5807 5806 5805 5804 5803 5802 5801 5800 5799 5798 5797 5796 5796 5795 5794
5720 5723 5725 5729 5733 5738 5743 5748 5754 5759 5763 5770 5776 5781 5787 5794 5796 5792 5789 5792 5793 5791 5791 5794 5799 5803 5807 5811 5813 5815 5817 5819 5820 5820 5821 5822 5824 5826 5827 5828 5829 5830 5830 5830 5831 5831 5831 5831 5831 5831 5831 5831 5830 5830 5829 5829 5829 5828 5828 5827 5826 5825 5824 5823 5822 5821 5821 5820 5820 5819 5818 5817 5817 5816 5815 5813 5812 5812 5811 5810 5808 5807 5806 5805 5804 5803 5803 5802 5801 5799 5798 5797 5797 5796 5795 5795 5794
5717 5719 5722 5725 5729 5733 5739 5745 5751 5756 5762 5768 5774 5779 5784 5789 5793 5791 5786 5787 5789 5788 5790 5794 5798 5802 5805 5808 5811 5814 5816 5817 5818 5819 5820 5821 5823 5824 5825 5826 5827 5828 5828 5829 5829 5829 5830 5830 5830 5830 5830 5829 5829 5828 5828 5828 5828 5827 5827 5826 5825 5824 5823 5822 5821 5820 5820 5819 5819 5818 5817 5817 5816 5815 5814 5813 5812 5811 5810 5809 5808 5807 5806 5805 5803 5803 5802 5801 5800 5799 5798 5797 5796 5796 5795 5795 5794
5712 5715 5718 5721 5724 5729 5735 5742 5748 5753 5760 5767 5772 5778 5783 5786 5786 5785 5782 5782 5784 5785 5789 5793 5797 5800 5802 5805 5808 5811 5813 5815 5816 5818 5819 5820 5821 5822 5823 5825 5826 5826 5826 5827 5828 5828 5829 5829 5829 5829 5829 5828 5828 5827 5827 5827 5826 5826 5825 5824 5823 5822 5822 5821 5820 5819 5819 5818 5818 5817 5817 5816 5815 5814 5813 5812 5811 5810 5809 5808 5807 5806 5805 5804 5803 5802 5801 5800 5799 5798 5797 5797 5796 5795 5795 5794 5794
5708 5712 5714 5717 5722 5727 5732 5739 5746 5751 5759 5768 5774 5777 5783 5784 5777 5775 5777 5777 5780 5782 5786 5790 5793 5797 5800 5803 5805 5808 5811 5814 5815 5816 5817 5818 5820 5821 5822 5823 5824 5824 5825 5825 5827 5828 5828 5828 5828 5828 5827 5827 5827 5826 5826 5826 5825 5825 5824 5823 5822 5821 5820 5819 5819 5818 5818 5817 5817 5817 5816 5815 5814 5813 5812 5811 5810 5809 5808 5807 5806 5805 5804 5803 5802 5801 5800 5799 5798 5798 5797 5796 5796 5795 5794 5794 5794
5705 5708 5711 5715 5720 5726 5732 5738 5744 5751 5759 5767 5772 5775 5780 5777 5768 5768 5772 5773 5776 5779 5783 5788 5790 5795 5799 5801 5804 5807 5810 5812 5813 5814 5816 5817 5818 5820 5821 5822 5822 5823 5823 5824 5826 5826 5826 5826 5826 5826 5826 5826 5825 5825 5825 5825 5824 5824 5823 5822 5821 5820 5819 5818 5818 5817 5817 5817 5816 5816 5815 5814 5813 5813 5812 5811 5810 5808 5808 5807 5806 5805 5803 5802 5801 5800 5800 5799 5798 5797 5796 5796 5795 5795 5794 5794 5794
5702 5706 5709 5714 5720 5726 5731 5736 5743 5750 5756 5761 5765 5768 5768 5764 5762 5766 5769 5771 5776 5778 5782 5786 5788 5793 5797 5799 5801 5805 5807 5809 5811 5812 5814 5815 5817 5818 5819 5820 5821 5821 5822 5823 5824 5824 5824 5825 5825 5825 5825 5824 5824 5824 5824 5823 5823 5822 5821 5820 5820 5819 5818 5817 5817 5817 5816 5816 5815 5815 5814 5813 5812 5812 5811 5810 5809 5808 5807 5806 5805 5804 5803 5801 5800 5800 5799 5798 5797 5796 5796 5795 5795 5795 5794 5794 5794
5700 5703 5707 5713 5720 5725 5729 5734 5742 5748 5753 5756 5756 5757 5756 5755 5759 5763 5765 5770 5774 5777 5781 5785 5788 5792 5795 5796 5799 5802 5804 5806 5808 5810 5812 5814 5815 5817 5818 5819 5820 5820 5821 5822 5822 5823 5823 5823 5823 5823 5823 5823 5823 5823 5822 5822 5822 5821 5820 5819 5819 5818 5817 5817 5816 5816 5816 5815 5815 5814 5813 5812 5812 5811 5810 5809 5808 5807 5806 5805 5804 5803 5802 5801 5800 5799 5798 5798 5797 5796 5795 5795 5795 5794 5794 5794 5794
5697 5701 5706 5713 5718 5723 5727 5733 5738 5743 5749 5750 5750 5751 5750 5751 5756 5759 5762 5766 5770 5774 5779 5782 5786 5789 5791 5793 5795 5798 5800 5803 5805 5807 5810 5812 5813 5815 5816 5817 5818 5819 5819 5820 5821 5821 5822 5822 5822 5822 5822 5822 5821 5821 5821 5821 5820 5819 5819 5818 5817 5817 5816 5816 5815 5815 5815 5814 5814 5813 5813 5812 5811 5810 5809 5808 5807 5807 5806 5805 5803 5802 5801 5800 5799 5798 5797 5797 5796 5795 5795 5795 5794 5794 5794 5794 5794
5694 5699 5705 5711 5717 5722 5726 5731 5736 5740 5742 5742 5742 5744 5745 5749 5754 5757 5761 5763 5766 5771 5774 5777 5782 5786 5788 5789 5791 5794 5797 5799 5802 5805 5807 5809 5811 5813 5815 5816 5817 5817 5818 5819 5819 5820 5820 5820 5820 5820 5820 5820 5820 5819 5819 5819 5819 5818 5818 5817 5816 5815 5815 5815 5815 5814 5814 5814 5813 5812 5812 5811 5811 5809 5809 5808 5807 5806 5805 5804 5803 5801 5800 5800 5799 5797 5796 5796 5796 5795 5794 5794 5794 5794 5794 5794 5794
5693 5698 5704 5709 5714 5719 5724 5729 5734 5735 5734 5733 5734 5737 5743 5749 5753 5756 5759 5761 5766 5769 5772 5776 5781 5783 5784 5786 5789 5791 5795 5798 5800 5803 5805 5808 5810 5812 5813 5814 5815 5816 5817 5817 5818 5819 5819 5819 5819 5819 5819 5818 5818 5818 5818 5817 5817 5817 5817 5816 5815 5815 5814 5814 5814 5813 5813 5813 5812 5811 5811 5810 5809 5808 5808 5807 5806 5805 5804 5803 5802 5801 5800 5799 5798 5796 5796 5796 5795 5794 5794 5794 5794 5794 5794 5793 5794
5692 5697 5703 5709 5713 5716 5719 5722 5723 5724 5724 5726 5731 5737 5744 5748 5750 5754 5756 5760 5766 5769 5772 5778 5781 5781 5781 5783 5787 5791 5793 5796 5799 5802 5804 5806 5808 5810 5812 5813 5814 5815 5815 5816 5817 5817 5817 5817 5817 5817 5817 5817 5817 5817 5816 5816 5816 5816 5815 5815 5814 5814 5813 5813 5812 5812 5812 5812 5811 5810 5810 5809 5808 5808 5807 5806 5805 5804 5803 5802 5801 5800 5799 5798 5797 5796 5796 5795 5795 5794 5793 5793 5793 5793 5793 5793 5793
5692 5696 5701 5708 5712 5713 5713 5714 5716 5718 5721 5727 5732 5737 5742 5745 5747 5751 5755 5759 5764 5768 5772 5777 5781 5782 5780 5781 5785 5789 5792 5795 5798 5801 5803 5805 5807 5808 5810 5811 5812 5813 5814 5815 5816 5816 5816 5816 5816 5816 5816 5816 5815 5815 5815 5814 5814 5814 5814 5813 5813 5812 5811 5811 5811 5811 5811 5810 5810 5809 5809 5808 5808 5807 5807 5805 5804 5803 5803 5802 5800 5799 5798 5797 5796 5796 5795 5794 5794 5793 5793 5793 5793 5793 5793 5793 5793
5692 5693 5697 5703 5705 5707 5710 5713 5716 5718 5722 5727 5732 5736 5740 5742 5746 5750 5755 5759 5762 5765 5770 5776 5781 5783 5781 5779 5783 5788 5791 5795 5798 5800 5802 5804 5806 5807 5808 5810 5811 5812 5813 5814 5814 5815 5815 5815 5815 5815 5815 5814 5814 5814 5813 5813 5813 5813 5812 5811 5811 5811 5810 5810 5810 5810 5810 5810 5809 5808 5808 5807 5807 5807 5806 5805 5804 5803 5802 5801 5799 5798 5798 5797 5796 5795 5794 5793 5793 5793 5793 5793 5793 5793 5793 5793 5793
5692 5692 5695 5700 5702 5706 5711 5713 5716 5719 5722 5726 5732 5736 5739 5742 5745 5749 5754 5758 5762 5764 5766 5772 5778 5782 5781 5778 5780 5786 5790 5794 5796 5799 5801 5803 5804 5806 5807 5808 5810 5811 5812 5813 5813 5813 5814 5814 5814 5814 5813 5813 5813 5812 5812 5812 5812 5812 5811 5810 5810 5810 5810 5809 5809 5809 5809 5808 5808 5807 5807 5806 5806 5806 5805 5804 5803 5802 5801 5800 5799 5797 5797 5796 5795 5794 5794 5793 5792 5792 5792 5792 5792 5792 5793 5793 5793
5691 5692 5695 5700 5703 5707 5711 5713 5716 5720 5721 5726 5732 5735 5739 5742 5744 5747 5752 5756 5760 5762 5764 5767 5771 5778 5780 5776 5778 5785 5790 5793 5796 5798 5800 5802 5803 5805 5806 5807 5809 5810 5811 5811 5812 5812 5812 5812 5812 5812 5812 5811 5811 5811 5811 5811 5811 5811 5810 5809 5809 5809 5809 5808 5808 5808 5808 5807 5807 5806 5806 5805 5805 5805 5804 5803 5802 5801 5800 5799 5798 5797 5796 5795 5795 5794 5793 5792 5791 5791 5791 5791 5792 5792 5792 5793 5793
5691 5693 5696 5701 5703 5707 5711 5713 5716 5719 5722 5727 5733 5735 5738 5742 5743 5745 5749 5753 5756 5759 5762 5764 5768 5775 5780 5777 5779 5786 5790 5793 5796 5797 5799 5801 5803 5804 5805 5806 5808 5809 5809 5810 5810 5810 5811 5811 5811 5811 5811 5810 5810 5810 5810 5810 5809 5809 5809 5808 5807 5807 5807 5807 5807 5807 5807 5806 5806 5805 5805 5804 5804 5804 5803 5802 5801 5800 5799 5798 5797 5796 5795 5794 5794 5793 5793 5792 5791 5791 5791 5792 5792 5792 5793 5793 5793
5693 5695 5698 5702 5704 5707 5712 5715 5717 5720 5724 5729 5733 5735 5738 5741 5743 5745 5749 5751 5754 5758 5762 5765 5767 5774 5780 5779 5781 5787 5790 5792 5794 5796 5798 5800 5802 5803 5804 5806 5807 5808 5808 5808 5809 5809 5809 5809 5809 5809 5809 5809 5809 5809 5809 5808 5808 5808 5808 5807 5806 5806 5806 5806 5806 5806 5805 5805 5805 5804 5804 5803 5803 5803 5802 5801 5800 5799 5798 5797 5797 5795 5794 5794 5793 5793 5792 5792 5792 5792 5792 5792 5792 5792 5793 5793 5793
5696 5698 5701 5704 5705 5709 5713 5716 5719 5722 5726 5729 5732 5734 5737 5740 5743 5746 5750 5752 5755 5758 5762 5766 5767 5772 5778 5780 5782 5786 5788 5791 5794 5796 5797 5799 5801 5803 5804 5805 5805 5806 5807 5807 5807 5808 5808 5808 5808 5808 5808 5808 5808 5807 5807 5807 5806 5806 5806 5806 5805 5805 5805 5805 5805 5804 5804 5804 5803 5803 5803 5802 5802 5801 5801 5800 5799 5798 5797 5796 5796 5795 5794 5793 5793 5792 5792 5792 5791 5792 5792 5791 5791 5792 5793 5793 5794
5699 5702 5704 5706 5708 5711 5715 5718 5720 5723 5727 5729 5731 5733 5735 5738 5743 5748 5750 5752 5755 5756 5759 5764 5767 5772 5777 5780 5782 5785 5788 5791 5793 5795 5797 5798 5801 5802 5803 5803 5804 5805 5805 5806 5806 5806 5806 5806 5806 5806 5806 5806 5806 5806 5806 5805 5805 5805 5805 5804 5804 5804 5804 5804 5804 5803 5803 5803 5802 5802 5802 5801 5801 5800 5799 5799 5798 5797 5796 5795 5794 5794 5793 5792 5792 5792 5792 5791 5791 5791 5791 5791 5791 5792 5793 5793 5794
5702 5704 5706 5708 5710 5712 5716 5719 5721 5724 5727 5729 5731 5733 5735 5739 5744 5749 5750 5753 5756 5756 5758 5762 5767 5772 5777 5779 5782 5785 5787 5790 5792 5794 5795 5797 5799 5801 5801 5802 5803 5803 5804 5804 5804 5804 5804 5804 5805 5805 5805 5805 5805 5805 5805 5804 5804 5803 5803 5803 5803 5803 5803 5803 5803 5802 5802 5802 5801 5801 5800 5800 5800 5799 5798 5798 5797 5796 5795 5794 5793 5793 5792 5792 5791 5791 5791 5791 5791 5790 5791 5791 5791 5792 5793 5793 5794
5704 5707 5709 5711 5712 5714 5717 5720 5721 5724 5726 5729 5732 5734 5736 5740 5746 5749 5751 5754 5757 5758 5759 5763 5767 5772 5776 5779 5781 5784 5786 5789 5791 5792 5794 5796 5798 5799 5800 5800 5801 5802 5802 5802 5802 5802 5803 5803 5803 5804 5804 5804 5804 5804 5803 5802 5802 5802 5802 5802 5802 5802 5802 5802 5802 5801 5801 5801 5800 5800 5799 5799 5798 5798 5797 5797 5796 5795 5794 5793 5792 5792 5792 5791 5790 5790 5790 5790 5790 5790 5790 5791 5791 5792 5792 5793 5794
5707 5709 5711 5713 5715 5716 5719 5722 5723 5725 5727 5730 5733 5736 5738 5742 5747 5751 5752 5754 5757 5759 5761 5764 5769 5772 5775 5778 5781 5783 5785 5788 5789 5791 5792 5793 5795 5797 5798 5798 5799 5800 5800 5800 5800 5800 5801 5801 5802 5802 5802 5802 5802 5802 5802 5801 5801 5800 5800 5801 5801 5801 5801 5801 5801 5800 5800 5800 5799 5798 5798 5798 5797 5797 5797 5796 5795 5794 5793 5792 5791 5791 5791 5790 5790 5790 5790 5790 5790 5790 5790 5790 5791 5792 5792 5793 5793
5709 5711 5713 5714 5717 5718 5720 5722 5724 5727 5729 5731 5734 5737 5740 5745 5749 5752 5754 5756 5759 5761 5761 5764 5769 5772 5775 5778 5780 5782 5785 5786 5787 5788 5789 5791 5794 5796 5797 5797 5798 5799 5798 5798 5798 5798 5799 5800 5800 5800 5800 5801 5801 5801 5800 5800 5799 5799 5799 5799 5800 5800 5800 5800 5800 5799 5799 5799 5798 5797 5797 5797 5796 5796 5796 5795 5794 5793 5792 5791 5790 5790 5790 5790 5789 5789 5789 5789 5789 5789 5790 5790 5791 5791 5792 5793 5793
5710 5712 5714 5716 5718 5720 5722 5724 5726 5728 5731 5734 5737 5739 5743 5748 5751 5754 5755 5757 5761 5762 5762 5764 5769 5772 5775 5778 5780 5782 5783 5784 5785 5786 5788 5791 5794 5796 5796 5797 5797 5798 5797 5796 5796 5796 5797 5798 5798 5798 5799 5799 5799 5799 5798 5798 5798 5798 5798 5799 5799 5799 5799 5799 5799 5798 5798 5798 5797 5797 5796 5796 5795 5795 5795 5794 5793 5792 5791 5790 5789 5789 5789 5789 5789 5788 5788 5788 5788 5789 5789 5790 5790 5791 5792 5792 5793
5713 5714 5716 5718 5720 5721 5723 5726 5728 5729 5733 5736 5739 5742 5746 5749 5752 5754 5756 5758 5761 5762 5762 5764 5769 5772 5775 5777 5778 5780 5781 5782 5783 5785 5787 5791 5793 5794 5794 5795 5796 5797 5796 5795 5794 5794 5795 5796 5797 5797 5797 5797 5797 5797 5797 5797 5797 5797 5797 5798 5798 5798 5798 5798 5798 5797 5797 5797 5796 5796 5795 5795 5794 5794 5794 5793 5793 5792 5791 5790 5789 5788 5788 5789 5788 5788 5788 5788 5788 5788 5789 5789 5790 5790 5791 5791 5792
5715 5717 5718 5720 5722 5722 5724 5727 5730 5732 5734 5737 5741 5745 5748 5750 5751 5753 5756 5758 5760 5761 5761 5763 5768 5771 5774 5776 5778 5779 5781 5781 5782 5784 5787 5790 5791 5791 5792 5794 5795 5796 5796 5794 5792 5792 5794 5794 5795 5796 5796 5796 5795 5795 5795 5795 5795 5796 5796 5797 5797 5797 5797 5797 5797 5797 5796 5796 5796 5795 5794 5794 5794 5793 5793 5792 5792 5791 5790 5789 5788 5787 5787 5788 5788 5788 5788 5788 5788 5788 5788 5789 5789 5790 5790 5790 5791
5718 5719 5720 5722 5723 5725 5727 5729 5732 5734 5737 5740 5743 5746 5748 5749 5751 5753 5755 5757 5759 5761 5761 5764 5767 5770 5773 5777 5780 5782 5783 5782 5782 5784 5787 5788 5789 5790 5792 5793 5795 5795 5794 5792 5791 5791 5792 5793 5793 5794 5794 5794 5794 5794 5794 5794 5794 5794 5795 5795 5796 5796 5796 5796 5796 5796 5795 5795 5795 5794 5793 5793 5793 5792 5792 5791 5791 5790 5789 5788 5788 5787 5787 5787 5787 5788 5788 5788 5788 5788 5788 5788 5789 5789 5790 5790 5790
5721 5722 5722 5723 5725 5727 5729 5731 5733 5736 5739 5742 5745 5746 5747 5747 5749 5752 5754 5756 5758 5760 5762 5765 5768 5771 5774 5778 5781 5784 5785 5785 5784 5785 5785 5786 5787 5789 5791 5793 5794 5793 5791 5789 5789 5790 5790 5791 5792 5793 5793 5792 5792 5792 5792 5792 5793 5793 5794 5794 5795 5795 5795 5795 5795 5795 5794 5794 5794 5793 5792 5792 5792 5791 5791 5790 5790 5789 5788 5788 5787 5787 5786 5786 5787 5787 5787 5787 5788 5788 5788 5788 5789 5789 5789 5789 5789
5724 5725 5725 5725 5727 5728 5730 5732 5735 5738 5740 5743 5745 5746 5747 5747 5749 5752 5755 5757 5759 5761 5763 5766 5769 5773 5775 5777 5779 5781 5783 5785 5785 5784 5783 5784 5786 5788 5791 5792 5791 5789 5787 5787 5787 5788 5789 5790 5791 5791 5791 5791 5791 5791 5791 5791 5791 5792 5792 5793 5794 5794 5794 5794 5794 5794 5793 5793 5793 5792 5792 5791 5791 5790 5790 5790 5789 5788 5788 5787 5787 5786 5786 5786 5786 5786 5787 5787 5787 5788 5788 5788 5788 5788 5789 5789 5789
5727 5727 5727 5728 5728 5730 5733 5735 5737 5740 5742 5744 5746 5747 5749 5749 5750 5753 5755 5757 5759 5762 5764 5767 5770 5773 5775 5777 5777 5778 5780 5784 5785 5784 5783 5783 5785 5787 5789 5789 5788 5786 5785 5784 5785 5786 5787 5789 5790 5790 5789 5789 5789 5789 5789 5790 5790 5791 5791 5792 5792 5793 5793 5793 5793 5793 5792 5792 5791 5791 5791 5790 5790 5789 5789 5789 5788 5787 5787 5786 5786 5786 5786 5786 5786 5786 5786 5786 5787 5787 5787 5787 5788 5788 5788 5788 5788
5729 5729 5729 5730 5731 5733 5736 5738 5740 5742 5744 5746 5747 5749 5750 5751 5752 5753 5755 5758 5760 5762 5765 5768 5771 5773 5775 5776 5778 5778 5779 5782 5785 5785 5784 5784 5785 5785 5785 5784 5783 5782 5783 5784 5785 5785 5787 5788 5788 5788 5788 5788 5788 5788 5788 5788 5789 5790 5790 5791 5792 5792 5792 5792 5792 5792 5791 5791 5790 5790 5790 5789 5789 5789 5788 5788 5787 5787 5786 5786 5785 5785 5785 5785 5785 5786 5786 5786 5786 5786 5786 5786 5787 5787 5787 5787 5787
5730 5730 5731 5732 5734 5736 5738 5740 5742 5744 5746 5747 5748 5749 5751 5752 5754 5754 5756 5759 5761 5763 5766 5769 5772 5773 5774 5776 5777 5777 5776 5779 5782 5784 5785 5784 5783 5782 5781 5780 5780 5779 5781 5783 5784 5785 5786 5787 5787 5786 5786 5786 5786 5787 5787 5787 5788 5789 5790 5791 5791 5791 5791 5791 5791 5791 5790 5790 5789 5789 5789 5788 5788 5788 5787 5787 5787 5786 5785 5785 5785 5785 5785 5785 5785 5785 5785 5785 5785 5785 5785 5786 5786 5786 5786 5786 5786
5732 5733 5735 5736 5737 5739 5740 5742 5743 5745 5747 5748 5749 5750 5751 5752 5754 5755 5757 5760 5762 5765 5767 5769 5771 5772 5774 5775 5776 5774 5773 5775 5779 5782 5783 5781 5779 5778 5778 5778 5778 5778 5779 5782 5785 5786 5787 5787 5785 5784 5785 5785 5785 5785 5786 5786 5787 5788 5789 5790 5790 5791 5791 5790 5790 5789 5789 5789 5788 5788 5788 5788 5787 5787 5787 5786 5786 5785 5785 5784 5784 5784 5784 5784 5784 5784 5784 5784 5784 5784 5785 5785 5785 5785 5785 5785 5785
5736 5737 5739 5739 5740 5741 5742 5744 5745 5746 5747 5748 5749 5750 5750 5751 5752 5754 5756 5759 5762 5765 5767 5768 5770 5772 5774 5774 5773 5771 5770 5773 5778 5780 5778 5777 5776 5776 5777 5777 5777 5777 5779 5782 5785 5785 5785 5784 5783 5783 5783 5783 5784 5784 5785 5786 5787 5788 5788 5789 5790 5790 5789 5789 5788 5788 5787 5787 5787 5787 5787 5786 5786 5786 5786 5785 5785 5785 5784 5783 5783 5783 5783 5783 5783 5783 5783 5783 5783 5783 5783 5784 5784 5783 5783 5783 5783
5739 5740 5740 5741 5741 5742 5743 5745 5746 5747 5748 5748 5750 5751 5751 5752 5752 5753 5756 5758 5761 5763 5765 5767 5769 5771 5772 5773 5772 5770 5769 5772 5777 5778 5776 5775 5775 5775 5775 5776 5776 5777 5779 5781 5783 5783 5782 5782 5782 5782 5782 5782 5783 5784 5784 5785 5786 5787 5788 5788 5788 5788 5788 5787 5787 5786 5786 5786 5785 5785 5785 5785 5785 5785 5784 5784 5784 5784 5783 5783 5782 5782 5782 5782 5782 5781 5781 5781 5781 5782 5782 5782 5782 5782 5782 5782 5782
5741 5741 5741 5741 5742 5743 5744 5745 5746 5747 5748 5749 5750 5752 5753 5753 5753 5754 5756 5758 5760 5762 5763 5765 5767 5769 5770 5771 5771 5770 5769 5773 5776 5776 5775 5774 5774 5774 5776 5776 5776 5777 5778 5779 5780 5780 5779 5780 5780 5780 5780 5781 5781 5782 5783 5784 5785 5785 5786 5787 5787 5786 5786 5786 5785 5785 5784 5784 5784 5784 5784 5784 5783 5783 5783 5783 5782 5782 5782 5782 5781 5781 5781 5780 5780 5780 5780 5780 5780 5780 5780 5780 5780 5780 5780 5780 5780
5742 5742 5743 5743 5743 5744 5745 5746 5748 5748 5749 5751 5751 5753 5754 5754 5754 5756 5758 5759 5760 5762 5762 5762 5764 5766 5767 5769 5769 5769 5770 5774 5775 5773 5773 5773 5773 5775 5776 5777 5777 5778 5778 5778 5778 5777 5777 5778 5778 5778 5778 5779 5780 5781 5782 5783 5784 5784 5784 5784 5785 5785 5784 5784 5784 5784 5783 5783 5783 5783 5783 5782 5782 5782 5781 5781 5781 5780 5780 5780 5780 5779 5779 5779 5778 5778 5778 5778 5778 5778 5778 5778 5778 5778 5778 5778 5778
5744 5744 5744 5745 5746 5746 5747 5748 5749 5749 5751 5752 5753 5753 5755 5755 5756 5758 5758 5759 5761 5762 5761 5763 5765 5766 5766 5767 5768 5768 5770 5772 5772 5771 5771 5772 5773 5775 5776 5777 5777 5777 5776 5775 5776 5777 5777 5776 5777 5777 5777 5778 5779 5780 5781 5782 5782 5782 5782 5783 5783 5783 5783 5783 5782 5782 5782 5782 5782 5781 5781 5781 5780 5780 5779 5779 5779 5778 5778 5778 5777 5777 5777 5777 5776 5776 5776 5776 5776 5776 5776 5776 5776 5776 5776 5776 5776
5744 5745 5745 5747 5748 5748 5748 5749 5750 5750 5752 5753 5754 5755 5756 5757 5756 5758 5759 5760 5762 5763 5763 5766 5767 5767 5767 5767 5767 5767 5768 5770 5770 5771 5771 5771 5772 5774 5775 5776 5776 5775 5774 5774 5776 5778 5778 5776 5776 5776 5776 5777 5777 5778 5779 5780 5781 5781 5782 5782 5782 5782 5781 5781 5780 5780 5780 5780 5780 5779 5779 5778 5778 5778 5777 5777 5776 5776 5776 5775 5775 5775 5775 5774 5774 5774 5774 5774 5774 5774 5774 5774 5774 5774 5774 5774 5774
5744 5745 5746 5748 5749 5749 5749 5750 5751 5752 5753 5754 5755 5756 5758 5758 5757 5758 5759 5761 5762 5764 5766 5767 5767 5767 5768 5768 5768 5768 5768 5769 5770 5771 5772 5771 5772 5773 5774 5775 5774 5774 5774 5775 5777 5778 5778 5777 5776 5776 5776 5776 5776 5776 5777 5779 5781 5781 5781 5781 5780 5780 5779 5779 5778 5778 5777 5778 5777 5777 5777 5776 5776 5775 5775 5774 5774 5774 5773 5773 5773 5773 5772 5772 5772 5772 5772 5772 5772 5771 5771 5771 5771 5771 5771 5771 5771
5746 5747 5748 5749 5750 5751 5751 5752 5752 5753 5754 5755 5756 5757 5758 5759 5759 5759 5759 5761 5762 5763 5765 5767 5767 5767 5768 5768 5768 5768 5769 5769 5770 5771 5771 5770 5771 5773 5774 5774 5773 5773 5774 5776 5777 5777 5777 5775 5775 5776 5775 5776 5776 5776 5777 5780 5781 5781 5780 5779 5778 5778 5777 5777 5776 5776 5776 5776 5776 5775 5775 5774 5774 5773 5773 5772 5772 5771 5771 5770 5770 5770 5770 5770 5769 5769 5769 5769 5769 5769 5769 5769 5768 5768 5768 5768 5768
5747 5748 5748 5749 5750 5751 5752 5753 5753 5754 5755 5755 5756 5758 5759 5760 5761 5761 5761 5762 5762 5763 5764 5765 5766 5766 5766 5767 5767 5768 5769 5770 5771 5770 5770 5770 5771 5773 5774 5773 5772 5773 5775 5776 5776 5776 5776 5775 5774 5774 5775 5776 5777 5776 5778 5779 5779 5778 5777 5776 5776 5775 5775 5775 5775 5774 5774 5775 5775 5774 5773 5772 5772 5771 5771 5770 5769 5769 5768 5767 5767 5766 5766 5766 5766 5766 5766 5766 5766 5766 5765 5765 5765 5765 5765 5765 5764
5749 5749 5750 5750 5751 5752 5753 5754 5754 5755 5756 5757 5757 5758 5760 5760 5762 5762 5762 5763 5764 5765 5765 5766 5767 5766 5766 5766 5767 5768 5770 5771 5771 5771 5771 5773 5774 5774 5774 5773 5773 5774 5775 5775 5776 5775 5775 5775 5774 5774 5775 5776 5776 5776 5777 5777 5777 5776 5774 5773 5773 5773 5773 5772 5772 5772 5772 5773 5773 5773 5772 5772 5771 5769 5769 5768 5767 5766 5766 5765 5764 5764 5763 5763 5763 5763 5763 5763 5763 5763 5762 5762 5762 5762 5762 5761 5761
5751 5752 5752 5752 5752 5753 5754 5755 5755 5756 5757 5758 5759 5759 5760 5761 5761 5762 5764 5765 5766 5767 5767 5768 5768 5768 5767 5767 5767 5768 5770 5771 5773 5773 5773 5774 5774 5774 5774 5773 5773 5774 5775 5776 5776 5777 5777 5776 5775 5774 5774 5775 5775 5775 5776 5776 5776 5774 5772 5772 5771 5771 5771 5770 5770 5771 5770 5770 5770 5770 5770 5770 5769 5768 5766 5765 5765 5764 5763 5762 5762 5761 5761 5760 5760 5760 5760 5759 5759 5759 5759 5758 5758 5758 5758 5758 5757
5753 5754 5754 5755 5754 5755 5756 5756 5756 5757 5758 5760 5760 5761 5761 5762 5762 5763 5764 5766 5767 5768 5768 5768 5769 5769 5769 5769 5769 5770 5771 5772 5773 5773 5773 5773 5773 5774 5774 5774 5774 5774 5774 5775 5776 5776 5776 5775 5774 5773 5773 5774 5775 5775 5775 5775 5774 5773 5771 5771 5769 5769 5768 5768 5768 5769 5768 5768 5767 5767 5767 5767 5766 5765 5764 5763 5762 5761 5761 5760 5759 5758 5758 5758 5757 5757 5757 5756 5756 5756 5756 5755 5755 5754 5754 5754 5754